Weather Service Report


049 
ASUS46 KPQR 010410
RWROR 

OREGON REGIONAL WEATHER ROUNDUP
NATIONAL WEATHER SERVICE PORTLAND OR
900 PM PDT TUE SEP 30 2014

NOTE: "FAIR" INDICATES FEW OR NO CLOUDS BELOW 12,000 FEET WITH
NO SIGNIFICANT WEATHER AND/OR OBSTRUCTIONS TO VISIBILITY.

ORZ001>013-010500-
NORTHWEST OREGON

  
CITY           SKY/WX    TMP DP  RH WIND       PRES   REMARKS
ASTORIA        CLOUDY    58  52  80 W3        30.18S                  
NEWPORT        PTCLDY    55  54  94 CALM      30.22S                  
PORTLAND       PTCLDY    57  51  80 W5        30.17R                  
VANCOUVER WA   PTCLDY    59  50  72 NW6       30.16R                  
SCAPPOOSE      CLEAR     57  50  77 NE3       30.16R                  
HILLSBORO      CLEAR     55  50  83 N3        30.17R                  
AURORA         PTCLDY    55  53  93 CALM      30.18R                  
MCMINNVILLE    CLOUDY    57  51  80 W5        30.18R                  
SALEM          CLEAR     59  51  75 NW8       30.17R                  
CORVALLIS      CLEAR     57  52  82 NW12      30.19R                  
EUGENE         PTCLDY    55  49  80 CALM      30.18R                  
$$

ORZ021-028-010500-
SOUTHWEST OREGON

  
CITY           SKY/WX    TMP DP  RH WIND       PRES   REMARKS
NORTH BEND     CLEAR     57  57 100 CALM      30.20R                  
BROOKINGS      CLEAR     61  49  64 N6        30.10R                  
ROSEBURG       CLEAR     58  49  72 N6        30.18R                  
SEXTON SUMMIT  PTCLDY    45  42  89 N12G24    30.16S                  
MEDFORD        PTCLDY    61  44  53 CALM      30.14R                  
$$

ORZ009-041-010500-
COLUMBIA GORGE

  
CITY           SKY/WX    TMP DP  RH WIND       PRES   REMARKS
TROUTDALE      PTCLDY    55  53  93 CALM      30.16R                  
THE DALLES     CLEAR     59  44  57 NW6       30.10R                  
$$

ORZ029>031-042>050-061>064-010500-
EASTERN OREGON

  
CITY           SKY/WX    TMP DP  RH WIND       PRES   REMARKS
REDMOND        CLOUDY    51  38  60 W9        30.15R                  
BEND           MOCLDY    50  37  62 NW7       30.17R                  
KLAMATH FALLS  CLEAR     48  35  60 N10       30.13R                  
LAKEVIEW       PTCLDY    48  30  49 N15       30.13R                  
HERMISTON      CLEAR     59  45  59 SW12      30.04R                  
PENDLETON      CLEAR     56  41  57 W22       30.04R                  
JOHN DAY       CLEAR     48  37  65 W8        30.11R                  
MEACHAM        MOCLDY    47  40  76 VRB3      30.07R                  
LA GRANDE      MOCLDY    48  34  57 SW6       30.05S                  
BAKER CITY     MOCLDY    45  37  73 W5        30.07R                  
BURNS          CLEAR     36  29  75 NW6       30.11R WCI  31          
ROME             N/A     45  33  63 W3        30.06R                  
ONTARIO        PTCLDY    56  37  49 NW10      30.04R                  
$$

Return to Home page


Western Regional Climate Center, wrcc@dri.edu